FW8134 Weather Reports


Display with metric or nautical units.
time (UTC)temp
F
wind
direction
speed
MPH
gust
MPH
rain 1hr
in
rain 24hr
in
rain mn
in
humidity
%
barometer
mb
20260902215018 58 0.0 0.0 0.00 0.00 0.00 87 1004.0
20260902214019 58 0.0 0.0 0.00 0.00 0.00 87 1004.0
20260902213016 59 0.0 0.0 0.00 0.00 0.00 86 1004.0
20260902212017 59 0.0 0.0 0.00 0.00 0.00 85 1003.9
20260902211018 59 0.0 0.0 0.00 0.00 0.00 85 1003.8
20260902210020 60 0.0 0.0 0.00 0.00 0.00 84 1003.8
20260902205016 60 0.0 0.0 0.00 0.00 0.00 83 1003.9
20260902204017 61 0.0 0.0 0.00 0.00 0.00 83 1003.8
20260902203018 61 0.0 0.0 0.00 0.00 0.00 82 1003.8
20260902202019 62 0.0 0.0 0.00 0.00 0.00 81 1003.7
20260902201015 62 0.0 0.0 0.00 0.00 0.00 80 1003.7
20260902200017 63 0.0 0.0 0.00 0.00 0.00 79 1003.6
20260902195018 64 0.0 0.0 0.00 0.00 0.00 77 1003.6
20260902194019 64 0.0 0.0 0.00 0.00 0.00 75 1003.6
20260902193016 65 0.0 0.0 0.00 0.00 0.00 74 1003.6
20260902192037 66 0.0 0.0 0.00 0.00 0.00 73 1003.5
20260902191018 67 0.0 0.0 0.00 0.00 0.00 69 1003.4
20260902190019 68 0.0 0.0 0.00 0.00 0.00 68 1003.4
20260902185015 70 0.0 0.0 0.00 0.00 0.00 66 1003.3
20260902184017 71 0.0 0.0 0.00 0.00 0.00 61 1003.2
20260902183018 72 0.0 1.0 0.00 0.00 0.00 59 1003.2
20260902182019 73 236 0.0 2.0 0.00 0.00 0.00 56 1003.2
20260902181020 74 217 0.0 6.0 0.00 0.00 0.00 54 1003.1
20260902180016 75 212 1.0 7.0 0.00 0.00 0.00 53 1003.0
20260902175017 75 239 1.0 4.0 0.00 0.00 0.00 53 1003.0
20260902174019 75 207 2.0 5.0 0.00 0.00 0.00 52 1003.0
20260902173020 76 241 1.0 4.0 0.00 0.00 0.00 52 1003.0
20260902172016 76 196 2.0 6.0 0.00 0.00 0.00 50 1003.0
20260902171017 76 212 1.0 3.0 0.00 0.00 0.00 50 1003.0
20260902170019 77 223 2.0 6.0 0.00 0.00 0.00 49 1003.0
20260902165020 77 212 3.0 9.0 0.00 0.00 0.00 48 1003.0
20260902164037 78 216 2.0 8.0 0.00 0.00 0.00 48 1003.1
20260902163017 78 270 1.0 3.0 0.00 0.00 0.00 49 1003.0
20260902162018 78 251 1.0 5.0 0.00 0.00 0.00 49 1003.1
20260902161040 79 217 3.0 6.0 0.00 0.00 0.00 46 1003.2
20260902160016 78 198 2.0 6.0 0.00 0.00 0.00 47 1003.2
20260902155017 78 217 2.0 6.0 0.00 0.00 0.00 46 1003.3
20260902154018 79 231 3.0 10.0 0.00 0.00 0.00 45 1003.3
20260902153019 79 186 1.0 6.0 0.00 0.00 0.00 48 1003.3
20260902152015 79 248 2.0 5.0 0.00 0.00 0.00 47 1003.4
20260902151016 79 71 1.0 2.0 0.00 0.00 0.00 48 1003.4
20260902150018 78 204 2.0 4.0 0.00 0.00 0.00 48 1003.6
20260902145019 77 283 1.0 4.0 0.00 0.00 0.00 48 1003.6
20260902144015 78 214 2.0 4.0 0.00 0.00 0.00 49 1003.7
20260902143036 78 269 2.0 7.0 0.00 0.00 0.00 47 1003.7
20260902142037 78 216 2.0 5.0 0.00 0.00 0.00 48 1003.6
20260902141038 77 215 2.0 6.0 0.00 0.00 0.00 49 1003.6
20260902140020 77 240 2.0 9.0 0.00 0.00 0.00 49 1003.7
20260902135016 76 196 2.0 7.0 0.00 0.00 0.00 50 1003.8
20260902134017 76 224 2.0 8.0 0.00 0.00 0.00 51 1003.8
20260902133039 75 0 1.0 5.0 0.00 0.00 0.00 51 1003.9
20260902132020 75 213 2.0 5.0 0.00 0.00 0.00 51 1003.9
20260902131016 75 204 1.0 4.0 0.00 0.00 0.00 52 1004.0
20260902130017 75 313 2.0 6.0 0.00 0.00 0.00 53 1004.0
20260902125018 75 179 2.0 5.0 0.00 0.00 0.00 52 1004.1
20260902124019 75 105 2.0 7.0 0.00 0.00 0.00 52 1004.1
20260902123015 75 265 2.0 4.0 0.00 0.00 0.00 52 1004.3
20260902122016 75 249 3.0 7.0 0.00 0.00 0.00 52 1004.3
20260902121018 74 33 4.0 8.0 0.00 0.00 0.00 52 1004.3
20260902120019 75 205 3.0 7.0 0.00 0.00 0.00 52 1004.5
20260902115015 75 36 1.0 4.0 0.00 0.00 0.00 53 1004.5
20260902114016 74 191 2.0 5.0 0.00 0.00 0.00 53 1004.5
20260902113017 74 226 2.0 5.0 0.00 0.00 0.00 53 1004.6
20260902112059 74 225 2.0 10.0 0.00 0.00 0.00 53 1004.6
20260902111015 74 223 2.0 7.0 0.00 0.00 0.00 54 1004.7
20260902110016 73 223 2.0 8.0 0.00 0.00 0.00 54 1004.7
20260902105017 72 236 2.0 10.0 0.00 0.00 0.00 56 1004.7
20260902104019 73 226 4.0 9.0 0.00 0.00 0.00 56 1004.8
20260902103040 72 220 2.0 5.0 0.00 0.00 0.00 58 1004.8
20260902102016 72 65 1.0 5.0 0.00 0.00 0.00 59 1004.8
20260902101017 71 355 3.0 6.0 0.00 0.00 0.00 59 1004.8
20260902100018 72 244 3.0 9.0 0.00 0.00 0.00 59 1004.9
20260902095019 71 221 2.0 6.0 0.00 0.00 0.00 60 1005.0
20260902094016 70 250 1.0 4.0 0.00 0.00 0.00 63 1005.1
20260902093017 70 291 2.0 5.0 0.00 0.00 0.00 63 1004.9
20260902092038 69 162 1.0 3.0 0.00 0.00 0.00 65 1004.9
20260902091019 69 189 3.0 6.0 0.00 0.00 0.00 64 1004.9
20260902090020 69 306 1.0 5.0 0.00 0.00 0.00 65 1004.7
20260902085016 70 204 1.0 4.0 0.00 0.00 0.00 64 1004.8
20260902084018 69 0.0 0.0 0.00 0.00 0.00 69 1004.7
20260902083019 69 0.0 0.0 0.00 0.00 0.00 72 1004.6
20260902082020 68 0.0 0.0 0.00 0.00 0.00 72 1004.5
20260902081036 68 0.0 0.0 0.00 0.00 0.00 73 1004.4
20260902080017 68 0.0 0.0 0.00 0.00 0.00 75 1004.4
20260902075019 69 0.0 0.0 0.00 0.00 0.00 79 1004.2
20260902074020 67 0.0 0.0 0.00 0.00 0.00 87 1004.2
20260902073016 64 0.0 0.0 0.00 0.00 0.00 91 1004.1
20260902072017 61 0.0 0.0 0.00 0.00 0.00 92 1004.0
20260902071019 61 0.0 0.0 0.00 0.00 0.00 94 1004.0
20260902070020 60 0.0 0.0 0.00 0.00 0.00 95 1003.9
20260902065016 60 0.0 0.0 0.00 0.00 0.00 96 1003.9
20260902064017 59 0.0 0.0 0.00 0.00 0.00 97 1003.9
20260902063018 56 0.0 0.0 0.00 0.00 0.00 97 1003.9
20260902062020 54 0.0 0.0 0.00 0.00 0.00 98 1003.9
20260902061016 51 0.0 0.0 0.00 0.00 0.00 97 1003.9
20260902060017 49 0.0 0.0 0.00 0.00 0.00 97 1003.8
20260902055019 49 0.0 0.0 0.00 0.00 0.00 97 1003.8
20260902054020 49 0.0 0.0 0.00 0.00 0.00 97 1003.7
20260902053016 48 0.0 0.0 0.00 0.00 0.00 96 1003.9
20260902052017 49 0.0 0.0 0.00 0.00 0.00 96 1003.9
20260902051018 49 0.0 0.0 0.00 0.00 0.00 96 1003.9
20260902050019 49 0.0 0.0 0.00 0.00 0.00 96 1003.9
20260902045016 49 0.0 0.0 0.00 0.00 0.00 96 1003.9
20260902044017 49 0.0 0.0 0.00 0.00 0.00 96 1003.8
20260902043018 49 0.0 0.0 0.00 0.00 0.00 96 1003.8
20260902042019 49 0.0 0.0 0.00 0.00 0.00 96 1003.8
20260902041015 49 0.0 0.0 0.00 0.00 0.00 96 1003.7
20260902040037 50 0.0 0.0 0.00 0.00 0.00 96 1003.7
20260902035018 50 0.0 0.0 0.00 0.00 0.00 96 1003.6
20260902034019 50 0.0 0.0 0.00 0.00 0.00 96 1003.7
20260902033015 50 0.0 0.0 0.00 0.00 0.00 96 1003.8
20260902032037 50 0.0 0.0 0.00 0.00 0.00 96 1003.8
20260902031018 50 0.0 0.0 0.00 0.00 0.00 95 1003.8
20260902030019 51 0.0 0.0 0.00 0.00 0.00 95 1003.6
20260902025015 51 0.0 0.0 0.00 0.00 0.00 95 1003.6
20260902024017 51 0.0 0.0 0.00 0.00 0.00 95 1003.6
20260902023038 51 0.0 0.0 0.00 0.00 0.00 95 1003.6
20260902022019 52 0.0 0.0 0.00 0.00 0.00 95 1003.6
20260902021015 52 0.0 0.0 0.00 0.00 0.00 95 1003.8
20260902020016 51 0.0 0.0 0.00 0.00 0.00 95 1003.7
20260902015018 52 0.0 0.0 0.00 0.00 0.00 95 1003.7
20260902014019 52 0.0 0.0 0.00 0.00 0.00 95 1003.7
20260902013015 52 0.0 0.0 0.00 0.00 0.00 94 1003.7
20260902012016 52 0.0 0.0 0.00 0.00 0.00 95 1003.9
20260902011017 52 0.0 0.0 0.00 0.00 0.00 94 1003.8
20260902010018 52 0.0 0.0 0.00 0.00 0.00 94 1003.9
20260902005020 53 0.0 0.0 0.00 0.00 0.00 94 1003.9
20260902004016 53 0.0 0.0 0.00 0.00 0.00 94 1004.0
20260902003017 53 0.0 0.0 0.00 0.00 0.00 94 1004.0
20260902002018 53 0.0 0.0 0.00 0.00 0.00 94 1004.1
20260902001020 53 0.0 0.0 0.00 0.00 0.00 93 1004.1
20260902000016 54 0.0 0.0 0.00 0.00 0.00 93 1004.0
20260901235017 54 0.0 0.0 0.00 0.00 0.00 93 1004.0
20260901234018 54 0.0 0.0 0.00 0.00 0.00 93 1004.0
20260901233020 54 0.0 0.0 0.00 0.00 0.00 93 1004.0
20260901232036 54 0.0 0.0 0.00 0.00 0.00 93 1004.0
20260901231018 54 0.0 0.0 0.00 0.00 0.00 92 1004.1
20260901230019 54 0.0 0.0 0.00 0.00 0.00 92 1004.1
20260901225040 54 0.0 0.0 0.00 0.00 0.00 92 1004.1
20260901224037 54 0.0 0.0 0.00 0.00 0.00 92 1004.0
20260901223018 54 0.0 0.0 0.00 0.00 0.00 91 1004.1
20260901222019 54 0.0 0.0 0.00 0.00 0.00 91 1004.0
20260901221020 54 0.0 0.0 0.00 0.00 0.00 91 1004.1
20260901220016 54 0.0 0.0 0.00 0.00 0.00 90 1004.1